GW3114 Weather Reports


Display with metric or nautical units.
time (UTC)temp
F
wind
direction
speed
MPH
gust
MPH
rain 1hr
in
rain 24hr
in
rain mn
in
humidity
%
barometer
mb
20260510020909 56 228 0.0 0.0 0.00 0.00 0.00 90 1009.9
20260510015905 57 217 0.0 0.0 0.00 0.00 0.00 90 1009.8
20260510014902 57 225 1.0 1.0 0.00 0.00 0.00 89 1009.7
20260510013902 58 219 0.0 0.0 0.00 0.00 0.00 87 1009.6
20260510012858 58 222 1.0 1.0 0.00 0.00 0.00 87 1009.2
20260510011854 59 215 0.0 0.0 0.00 0.00 0.00 85 1009.3
20260510010852 59 216 0.0 0.0 0.00 0.00 0.00 83 1009.1
20260510005851 60 225 0.0 1.0 0.00 0.00 0.00 81 1008.9
20260510004851 61 221 0.0 0.0 0.00 0.00 0.00 79 1008.7
20260510003847 62 215 0.0 0.0 0.00 0.00 0.00 78 1008.5
20260510002842 63 220 0.0 0.0 0.00 0.00 0.00 77 1008.6
20260510001842 65 215 0.0 0.0 0.00 0.00 0.00 72 1008.6
20260510000842 66 213 0.0 0.0 0.00 0.00 0.00 68 1008.7
20260509235841 68 215 0.0 0.0 0.00 0.00 0.00 64 1008.5
20260509234840 72 221 0.0 0.0 0.00 0.00 0.00 60 1008.5
20260509233836 74 221 0.0 0.0 0.00 0.00 0.00 55 1008.3
20260509232834 72 216 0.0 0.0 0.00 0.00 0.00 54 1008.1
20260509231834 76 199 0.0 0.0 0.00 0.00 0.00 48 1008.1
20260509230829 75 218 0.0 0.0 0.00 0.00 0.00 49 1008.1
20260509225826 77 212 0.0 0.0 0.00 0.00 0.00 47 1008.2
20260509224826 76 228 1.0 1.0 0.00 0.00 0.00 49 1008.0
20260509223825 74 216 0.0 0.0 0.00 0.00 0.00 53 1008.1
20260509222824 74 215 0.0 1.0 0.00 0.00 0.00 51 1008.1
20260509221821 74 258 1.0 2.0 0.00 0.00 0.00 53 1008.0
20260509220819 76 216 0.0 0.0 0.00 0.00 0.00 50 1008.0
20260509215817 75 271 2.0 2.0 0.00 0.00 0.00 51 1008.1
20260509214816 75 215 0.0 0.0 0.00 0.00 0.00 53 1008.3
20260509213816 76 237 2.0 2.0 0.00 0.00 0.00 51 1008.0
20260509212815 78 243 2.0 2.0 0.00 0.00 0.00 50 1007.9
20260509211814 76 228 0.0 1.0 0.00 0.00 0.00 52 1007.9
20260509210813 76 224 0.0 0.0 0.00 0.00 0.00 52 1007.9
20260509205810 75 263 4.0 6.0 0.00 0.00 0.00 52 1008.0
20260509204808 77 286 3.0 3.0 0.00 0.00 0.00 50 1007.9
20260509203806 76 217 0.0 1.0 0.00 0.00 0.00 50 1008.0
20260509202805 73 196 2.0 2.0 0.00 0.00 0.00 52 1008.1
20260509201800 76 176 2.0 3.0 0.00 0.00 0.00 50 1008.0
20260509200800 75 171 3.0 4.0 0.00 0.00 0.00 50 1007.9
20260509195758 74 216 1.0 2.0 0.00 0.00 0.00 59 1008.0
20260509194753 72 173 1.0 2.0 0.00 0.00 0.00 57 1008.3
20260509193752 71 171 1.0 4.0 0.00 0.00 0.00 58 1008.4
20260509192749 70 204 1.0 2.0 0.00 0.00 0.00 61 1008.6
20260509191745 70 137 2.0 3.0 0.00 0.00 0.00 63 1008.8
20260509190743 71 138 3.0 4.0 0.00 0.00 0.00 59 1008.8
20260509185743 74 181 1.0 1.0 0.00 0.00 0.00 62 1009.0
20260509184743 70 205 3.0 4.0 0.00 0.00 0.00 58 1009.2
20260509183742 72 264 4.0 7.0 0.00 0.00 0.00 57 1009.4
20260509182739 72 209 0.0 1.0 0.00 0.00 0.00 56 1009.5
20260509181740 71 166 1.0 2.0 0.00 0.00 0.00 58 1009.3
20260509180739 69 153 1.0 1.0 0.00 0.00 0.00 60 1009.6
20260509175738 70 225 0.0 1.0 0.00 0.00 0.00 61 1009.6
20260509174737 70 187 1.0 1.0 0.00 0.00 0.00 62 1010.3
20260509173734 71 262 1.0 1.0 0.00 0.00 0.00 59 1010.4
20260509172732 71 228 1.0 1.0 0.00 0.00 0.00 58 1010.5
20260509171730 71 242 0.0 1.0 0.00 0.00 0.00 60 1010.5
20260509170729 73 340 2.0 2.0 0.00 0.00 0.00 54 1010.2
20260509165729 71 277 1.0 2.0 0.00 0.00 0.00 60 1010.6
20260509164727 70 233 2.0 2.0 0.00 0.00 0.00 59 1010.3
20260509163726 68 199 1.0 2.0 0.00 0.00 0.00 61 1010.5
20260509162726 67 210 0.0 0.0 0.00 0.00 0.00 60 1010.7
20260509161723 68 166 2.0 2.0 0.00 0.00 0.00 58 1010.6
20260509160720 69 166 2.0 3.0 0.00 0.00 0.00 58 1010.7
20260509155718 70 218 1.0 1.0 0.00 0.00 0.00 62 1010.7
20260509154717 69 257 1.0 1.0 0.00 0.00 0.00 58 1010.8
20260509153717 67 297 2.0 3.0 0.00 0.00 0.00 60 1010.8
20260509152715 68 265 2.0 2.0 0.00 0.00 0.00 58 1010.8
20260509151715 66 206 0.0 1.0 0.00 0.00 0.00 63 1011.0
20260509150710 67 176 1.0 3.0 0.00 0.00 0.00 57 1011.1
20260509145710 65 191 1.0 2.0 0.00 0.00 0.00 61 1011.1
20260509144708 65 157 2.0 2.0 0.00 0.00 0.00 63 1010.9
20260509143702 67 138 1.0 1.0 0.00 0.00 0.00 59 1011.1
20260509142700 65 218 0.0 0.0 0.00 0.00 0.00 62 1011.5
20260509141658 64 160 3.0 4.0 0.00 0.00 0.00 62 1011.3
20260509140658 62 211 0.0 1.0 0.00 0.00 0.00 69 1011.5
20260509135653 62 185 0.0 0.0 0.00 0.00 0.00 67 1011.4
20260509134653 60 227 1.0 1.0 0.00 0.00 0.00 67 1011.3
20260509133648 59 218 0.0 0.0 0.00 0.00 0.00 65 1011.5
20260509132649 58 221 0.0 0.0 0.00 0.00 0.00 68 1011.4
20260509131648 58 229 0.0 0.0 0.00 0.00 0.00 68 1011.8
20260509130647 58 227 1.0 1.0 0.00 0.00 0.00 66 1011.7
20260509125646 58 229 1.0 1.0 0.00 0.00 0.00 67 1011.5
20260509124645 57 220 0.0 0.0 0.00 0.00 0.00 67 1011.4
20260509123640 56 217 0.0 1.0 0.00 0.00 0.00 68 1011.8
20260509122638 56 219 1.0 1.0 0.00 0.00 0.00 68 1011.5
20260509121637 56 151 1.0 2.0 0.00 0.00 0.00 69 1011.4
20260509120633 56 215 1.0 3.0 0.00 0.00 0.00 67 1011.4
20260509115628 56 196 0.0 0.0 0.00 0.00 0.00 68 1011.3
20260509114624 56 153 1.0 2.0 0.00 0.00 0.00 67 1011.4
20260509113621 56 260 1.0 3.0 0.00 0.00 0.00 67 1011.3
20260509112620 55 207 0.0 0.0 0.00 0.00 0.00 68 1011.2
20260509111620 55 171 2.0 2.0 0.00 0.00 0.00 68 1011.1
20260509110620 55 143 2.0 2.0 0.00 0.00 0.00 68 1010.8
20260509105615 55 194 1.0 1.0 0.00 0.00 0.00 69 1010.7
20260509104615 55 192 1.0 1.0 0.00 0.00 0.00 69 1010.8
20260509103610 55 189 0.0 1.0 0.00 0.00 0.00 68 1010.7
20260509102610 55 186 0.0 1.0 0.00 0.00 0.00 66 1010.7
20260509101609 55 204 0.0 1.0 0.00 0.00 0.00 65 1010.7
20260509100609 55 207 0.0 1.0 0.00 0.00 0.00 65 1010.6
20260509095607 55 219 0.0 0.0 0.00 0.00 0.00 66 1010.9
20260509094607 55 228 0.0 1.0 0.00 0.00 0.00 66 1010.7
20260509093603 55 233 0.0 0.0 0.00 0.00 0.00 66 1010.9
20260509092604 55 254 1.0 2.0 0.00 0.00 0.00 66 1011.0
20260509091600 55 198 0.0 0.0 0.00 0.00 0.00 66 1010.9
20260509090559 55 205 1.0 1.0 0.00 0.00 0.00 65 1011.1
20260509085600 55 224 0.0 0.0 0.00 0.00 0.00 65 1011.3
20260509084559 55 214 0.0 0.0 0.00 0.00 0.00 64 1011.1
20260509083559 55 225 0.0 0.0 0.00 0.00 0.00 65 1011.3
20260509082558 56 210 0.0 0.0 0.00 0.00 0.00 63 1011.5
20260509081558 56 207 0.0 0.0 0.00 0.00 0.00 62 1011.5
20260509080553 56 141 2.0 3.0 0.00 0.00 0.00 62 1011.5
20260509075548 56 176 2.0 2.0 0.00 0.00 0.00 62 1011.5
20260509074548 57 120 2.0 3.0 0.00 0.00 0.00 60 1011.6
20260509073548 57 165 1.0 1.0 0.00 0.00 0.00 61 1011.5
20260509072546 57 168 0.0 1.0 0.00 0.00 0.00 60 1011.4
20260509071546 57 192 2.0 2.0 0.00 0.00 0.00 60 1011.5
20260509070547 57 188 2.0 2.0 0.00 0.00 0.00 59 1011.6
20260509065544 57 173 2.0 3.0 0.00 0.00 0.00 59 1011.6
20260509064544 57 169 1.0 2.0 0.00 0.00 0.00 60 1011.6
20260509063543 57 195 2.0 2.0 0.00 0.00 0.00 60 1011.3
20260509062538 57 266 0.0 1.0 0.00 0.00 0.00 61 1011.3
20260509061532 57 175 1.0 2.0 0.00 0.00 0.00 61 1011.7
20260509060527 57 181 3.0 4.0 0.00 0.00 0.00 59 1011.6
20260509055523 57 263 2.0 3.0 0.00 0.00 0.00 59 1011.8
20260509054523 57 179 4.0 4.0 0.00 0.00 0.00 58 1011.9
20260509053519 57 169 4.0 6.0 0.00 0.00 0.00 59 1011.8
20260509052519 57 174 2.0 3.0 0.00 0.00 0.00 59 1011.7
20260509051515 57 188 3.0 4.0 0.00 0.00 0.00 60 1012.0
20260509050514 57 178 1.0 1.0 0.00 0.00 0.00 60 1012.0
20260509045514 57 129 2.0 3.0 0.00 0.00 0.00 61 1012.0
20260509044515 57 206 0.0 0.0 0.00 0.00 0.00 61 1011.8
20260509043514 57 197 1.0 2.0 0.00 0.00 0.00 61 1011.9
20260509042512 56 200 1.0 1.0 0.00 0.00 0.00 62 1011.9
20260509041511 57 192 2.0 2.0 0.00 0.00 0.00 61 1011.9
20260509040507 57 216 1.0 1.0 0.00 0.00 0.00 61 1011.9
20260509035506 56 205 1.0 2.0 0.00 0.00 0.00 61 1011.9
20260509034501 57 209 0.0 1.0 0.00 0.00 0.00 61 1011.9
20260509033500 57 184 2.0 2.0 0.00 0.00 0.00 60 1012.1
20260509032500 57 216 1.0 2.0 0.00 0.00 0.00 60 1012.0
20260509031500 57 208 1.0 2.0 0.00 0.00 0.00 61 1012.5
20260509030456 54 190 0.0 0.0 0.00 0.00 0.00 67 1012.1
20260509025454 51 214 0.0 0.0 0.00 0.00 0.00 77 1012.2
20260509024452 52 214 0.0 0.0 0.00 0.00 0.00 77 1012.6
20260509023452 52 222 0.0 0.0 0.00 0.00 0.00 76 1012.4
20260509022451 53 220 0.0 0.0 0.00 0.00 0.00 74 1012.4
20260509021451 54 219 0.0 1.0 0.00 0.00 0.00 72 1012.3